EW0446 Weather Reports


Display with metric or nautical units.
time (UTC)temp
F
wind
direction
speed
MPH
gust
MPH
rain 1hr
in
rain 24hr
in
rain mn
in
humidity
%
barometer
mb
20260505024537 67 351 12.0 18.0 0.00 0.00 0.00 35 1003.7
20260505023035 68 19 14.0 24.0 0.00 0.00 0.00 34 1002.8
20260505021535 69 6 15.0 29.0 0.00 0.00 0.00 33 1002.3
20260505020035 70 356 13.0 21.0 0.00 0.00 0.00 32 1002.0
20260505014533 71 20 14.0 22.0 0.00 0.00 0.00 32 1001.6
20260505013033 72 351 15.0 23.0 0.00 0.00 0.00 32 1001.0
20260505011534 74 360 14.0 22.0 0.00 0.00 0.00 31 1000.6
20260505010036 75 10 12.0 18.0 0.00 0.00 0.00 32 1000.3
20260505004531 76 342 13.0 20.0 0.00 0.00 0.00 33 1000.1
20260505003031 77 356 15.0 21.0 0.00 0.00 0.00 33 999.9
20260505001532 79 305 12.0 18.0 0.00 0.00 0.00 32 999.7
20260505000030 80 332 13.0 20.0 0.00 0.00 0.00 29 999.5
20260504234533 82 291 2.0 6.0 0.00 0.00 0.00 25 999.3
20260504233029 83 239 4.0 9.0 0.00 0.00 0.00 20 999.3
20260504231528 84 285 5.0 10.0 0.00 0.00 0.00 20 999.2
20260504230028 84 253 3.0 9.0 0.00 0.00 0.00 24 999.1
20260504224527 84 286 4.0 9.0 0.00 0.00 0.00 21 999.1
20260504223026 84 329 3.0 9.0 0.00 0.00 0.00 27 999.1
20260504221525 83 258 2.0 8.0 0.00 0.00 0.00 23 999.1
20260504220024 83 288 5.0 15.0 0.00 0.00 0.00 21 999.1
20260504214523 84 243 1.0 6.0 0.00 0.00 0.00 26 999.2
20260504213022 84 295 4.0 11.0 0.00 0.00 0.00 25 999.4
20260504211520 83 241 7.0 11.0 0.00 0.00 0.00 19 999.4
20260504210019 83 286 3.0 13.0 0.00 0.00 0.00 23 999.4
20260504204517 84 281 6.0 14.0 0.00 0.00 0.00 20 999.6
20260504203022 82 273 6.0 16.0 0.00 0.00 0.00 23 999.7
20260504201513 82 318 8.0 14.0 0.00 0.00 0.00 25 999.8
20260504200012 82 332 9.0 17.0 0.00 0.00 0.00 26 999.9
20260504194512 83 312 4.0 11.0 0.00 0.00 0.00 24 999.9
20260504193015 83 301 8.0 12.0 0.00 0.00 0.00 25 999.9
20260504191521 83 299 7.0 18.0 0.00 0.00 0.00 25 999.9
20260504190007 82 351 11.0 19.0 0.00 0.00 0.00 27 999.8
20260504184506 82 324 8.0 16.0 0.00 0.00 0.00 34 999.9
20260504183004 81 291 7.0 16.0 0.00 0.00 0.00 34 1000.0
20260504181504 82 261 3.0 10.0 0.00 0.00 0.00 34 1000.1
20260504180100 81 335 6.0 12.0 0.00 0.00 0.00 35 1000.0
20260504174606 80 351 7.0 13.0 0.00 0.00 0.00 33 1000.1
20260504173058 79 335 6.0 12.0 0.00 0.00 0.00 43 1000.2
20260504171553 79 335 7.0 12.0 0.00 0.00 0.00 40 1000.3
20260504081548 57 16 0.0 3.0 0.00 0.00 0.00 61 1003.2
20260504050009 61 72 5.0 8.0 0.00 0.00 0.00 53 1005.1
20260504044509 62 77 5.0 9.0 0.00 0.00 0.00 50 1005.6
20260504043004 62 73 4.0 8.0 0.00 0.00 0.00 51 1005.9
20260504041502 61 77 2.0 5.0 0.00 0.00 0.00 51 1006.1
20260504040109 61 77 0.0 1.0 0.00 0.00 0.00 52 1006.5
20260504034601 62 77 0.0 2.0 0.00 0.00 0.00 51 1007.0
20260504033103 62 76 0.0 2.0 0.00 0.00 0.00 51 1006.8
20260504031604 63 77 2.0 5.0 0.00 0.00 0.00 48 1007.0
20260504030059 63 78 2.0 6.0 0.00 0.00 0.00 49 1006.7